Track IRIDIUM 100 now! 10-day predictions IRIDIUM 100 is classified as:
1 42956U 17061B 21021.25058308 .00000083 00000-0 22654-4 0 9992 2 42956 86.3993 129.7363 0002055 96.4893 263.6537 14.34219890172012